WetterOnline ( https://www.wetteronline.de )

Wetter aktuell Überherrn

Aktuelles Wetter: Berus (367m)

6-stündlich | Neueste Meldungen
Ortszeit Temperatur Wetter
Di, 29.11. 7:00 6.0° C Nebel
Di, 29.11. 1:00 6.4° C leichter Regen
Mo, 28.11. 19:00 6.8° C Sprühregen
Mo, 28.11. 13:00 7.3° C bedeckt
Mo, 28.11. 7:00 5.3° C bedeckt
Mo, 28.11. 1:00 4.6° C bedeckt
So, 27.11. 19:00 5.5° C bewölkt
So, 27.11. 13:00 5.6° C bedeckt
Ortszeit Temperatur Wetter
Di, 29.11. 11:00 6.8° C Nebel
Di, 29.11. 10:50 6.8° C Dunst
Di, 29.11. 10:40 6.5° C Dunst
Di, 29.11. 10:30 6.4° C Nebel
Di, 29.11. 10:20 6.4° C Dunst
Di, 29.11. 10:10 6.3° C Nebel
Di, 29.11. 10:00 6.1° C Nebel
Di, 29.11. 9:30 5.9° C Nebel
Di, 29.11. 9:00 5.7° C Nebel
Di, 29.11. 8:30 5.8° C bedeckt
Di, 29.11. 8:00 5.9° C Nebel
Ortszeit Relative Feuchte Sichtweite
Di, 29.11. 7:00 100% 0.6 km
Di, 29.11. 1:00 99% 3.2 km
Mo, 28.11. 19:00 98% 4.0 km
Mo, 28.11. 13:00 92% 40 km
Mo, 28.11. 7:00 90% 40 km
Mo, 28.11. 1:00 88% 27 km
So, 27.11. 19:00 85% 35 km
So, 27.11. 13:00 87% 35 km
Ortszeit Relative Feuchte Sichtweite
Di, 29.11. 11:00 98% 6 km
Di, 29.11. 10:50 98% -
Di, 29.11. 10:40 98% -
Di, 29.11. 10:30 99% 2.5 km
Di, 29.11. 10:20 99% -
Di, 29.11. 10:10 99% -
Di, 29.11. 10:00 99% 3.6 km
Di, 29.11. 9:30 99% 0.3 km
Di, 29.11. 9:00 100% 0.3 km
Di, 29.11. 8:30 99% 2.1 km
Di, 29.11. 8:00 99% 4.8 km
Ortszeit Niederschlagsmenge Niederschlagsart
Di, 29.11. 7:00 4 l/m2 in 12 Std. Regen
Di, 29.11. 1:00 3 l/m2 in 6 Std. Regen
Mo, 28.11. 19:00 1 l/m2 in 12 Std. Regen
Mo, 28.11. 13:00 0.5 l/m2 in 6 Std. Regen
Mo, 28.11. 7:00 0.0 l/m2 in 12 Std. -
Mo, 28.11. 1:00 0.0 l/m2 in 6 Std. -
So, 27.11. 19:00 0.1 l/m2 in 12 Std. Regen
So, 27.11. 13:00 0.0 l/m2 in 6 Std. -
Ortszeit Niederschlagsmenge Niederschlagsart
Di, 29.11. 11:00 0.0 l/m2 in 1 Std. -
Di, 29.11. 10:50 keine Meldung -
Di, 29.11. 10:40 keine Meldung -
Di, 29.11. 10:30 0.0 l/m2 in 1 Std. -
Di, 29.11. 10:20 keine Meldung -
Di, 29.11. 10:10 keine Meldung -
Di, 29.11. 10:00 0.0 l/m2 in 1 Std. -
Di, 29.11. 9:30 0.0 l/m2 in 1 Std. -
Di, 29.11. 9:00 0.0 l/m2 in 1 Std. -
Di, 29.11. 8:30 0.0 l/m2 in 1 Std. -
Di, 29.11. 8:00 0.0 l/m2 in 1 Std. -
Ortszeit Stärke Spitze Richtung
km/h Bft. km/h Grad Sektor
Di, 29.11. 7:00 7 2 14 300° NW
Di, 29.11. 1:00 9 2 19 290° W
Mo, 28.11. 19:00 0 0 14 - -
Mo, 28.11. 13:00 11 2 22 210° SW
Mo, 28.11. 7:00 11 2 22 220° SW
Mo, 28.11. 1:00 4 1 18 70° O
So, 27.11. 19:00 7 2 18 130° SO
So, 27.11. 13:00 6 1 17 100° O
Ortszeit Stärke Spitze Richtung
km/h Bft. km/h Grad Sektor
Di, 29.11. 11:00 7 2 14 320° NW
Di, 29.11. 10:50 7 2 - 320° NW
Di, 29.11. 10:40 7 2 - 320° NW
Di, 29.11. 10:30 4 1 14 360° N
Di, 29.11. 10:20 4 1 - 360° N
Di, 29.11. 10:10 6 1 - 10° N
Di, 29.11. 10:00 9 2 17 330° NW
Di, 29.11. 9:30 9 2 17 330° NW
Di, 29.11. 9:00 9 2 19 330° NW
Di, 29.11. 8:30 11 2 14 330° NW
Di, 29.11. 8:00 7 2 14 320° NW
Ortszeit Untergrenze Bedeckung Gattung
total tief tief mittel hoch
Di, 29.11. 7:00 <30 m 8/8 0/8 - - -
Di, 29.11. 1:00 60 m 8/8 8/8 - - -
Mo, 28.11. 19:00 150 m 7/8 7/8 - - -
Mo, 28.11. 13:00 510 m 8/8 8/8 - - -
Mo, 28.11. 7:00 990 m 8/8 8/8 - - -
Mo, 28.11. 1:00 1410 m 8/8 8/8 - - -
So, 27.11. 19:00 2700 m 8/8 7/8 - - -
So, 27.11. 13:00 180 m 8/8 8/8 - - -
Ortszeit Bedeckungsgrad in Achtel und Wolkenuntergrenze
Di, 29.11. 11:00 3(<30m) 8(1800m) 8(2700m)
Di, 29.11. 10:50 3(<30m) 8(1800m) 8(2700m)
Di, 29.11. 10:40 8
Di, 29.11. 10:30 6(<30m) 6(270m) 8(1110m)
Di, 29.11. 10:20 6(<30m) 6(270m) 8(1110m)
Di, 29.11. 10:10 8
Di, 29.11. 10:00 4(<30m) 8(1170m)
Di, 29.11. 9:30 8(<30m) 8(1200m) 8(2100m)
Di, 29.11. 9:00 8(<30m) 8(2100m) 8(2700m)
Di, 29.11. 8:30 3(<30m) 8(1800m) 8(2700m)
Di, 29.11. 8:00 5(<30m) 8(1800m)
Ortszeit Luftdruck NN (hPa) Tendenz (hPa in 3 Std.)
Di, 29.11. 7:00 1017 + 1,2
Di, 29.11. 1:00 1015 + 0,5
Mo, 28.11. 19:00 1013 + 0,6
Mo, 28.11. 13:00 1013 - 0,3
Mo, 28.11. 7:00 1013 - 0,3
Mo, 28.11. 1:00 1015 - 1,3
So, 27.11. 19:00 1018 - 2,5
So, 27.11. 13:00 1023 - 2,0
Ortszeit Luftdruck NN (hPa) Tendenz (hPa in 3 Std.)
Di, 29.11. 11:00 1019 + 1,5
Di, 29.11. 10:50 1019 keine Meldung
Di, 29.11. 10:40 1019 keine Meldung
Di, 29.11. 10:30 1018 + 1,4
Di, 29.11. 10:20 1018 keine Meldung
Di, 29.11. 10:10 1018 keine Meldung
Di, 29.11. 10:00 1018 + 1,3
Di, 29.11. 9:30 1018 + 1,3
Di, 29.11. 9:00 1018 + 1,5
Di, 29.11. 8:30 1017 + 1,4
Di, 29.11. 8:00 1017 + 1,4
Ortszeit Schneehöhe (cm)
Di, 29.11. 7:00 0
Di, 29.11. 1:00 0
Mo, 28.11. 19:00 0
Mo, 28.11. 13:00 0
Mo, 28.11. 7:00 0
Mo, 28.11. 1:00 0
So, 27.11. 19:00 0
So, 27.11. 13:00 0
Ortszeit Schneehöhe (cm)
Di, 29.11. 11:00 0
Di, 29.11. 10:50 0
Di, 29.11. 10:40 0
Di, 29.11. 10:30 0
Di, 29.11. 10:20 0
Di, 29.11. 10:10 0
Di, 29.11. 10:00 0
Di, 29.11. 9:30 0
Di, 29.11. 9:00 0
Di, 29.11. 8:30 0
Di, 29.11. 8:00 0
Link zu dieser Seite / Seite empfehlen

Das Wetter in ...